Location: Brahman Valley
(40.6513°N, 111.8855°W)
Time: 09:29:26
(UTC+00:00)

Tiros 1 despin weight - Pass Details

Date: 18 May 2021
Orbit: 594 x 641 km, 48.2° (Epoch: 22 June)

Event Time Altitude Azimuth Distance (km) Brightness Sun altitude
Rises 05:54:20 0° 297° (WNW) 2,938 ? -26.2°
Reaches altitude 10° 05:56:47 10° 304° (NW) 2,031 ? -26.4°
Maximum altitude 06:01:14 42° 16° (NNE) 920 ? -26.7°
Enters shadow 06:02:15 36° 49° (NE) 1,010 ? -26.8°
Drops below altitude 10° 06:05:40 10° 87° (E) 2,027 - -27.0°
Sets 06:08:06 0° 95° (E) 2,931 - -27.2°
